Temperature
26 24 24 25 25 26 25 25 25 25 25 24 24 23 22 22 22 22 22 22 22 22 23 22 22 21 21 21 21 20 20 20 19 19 19 19 19 19 18 18 18 18 18 18
24 24 25 25 25 25 25 25 25 25 25 24 23 23 22 22 22 22 22 22 22 23 22 22 22 22 22 21 21 21 20 20 20 20 19 19 19 19 18 18 18 18 18 18
25 25 26 26 26 26 25 24 25 24 24 24 23 23 22 22 22 22 22 23 23 23 23 23 23 22 22 22 21 21 21 20 20 20 19 19 19 19 19 18 18 18 18 18
25 25 26 26 26 26 25 25 25 25 23 22 23 22 22 21 21 21 22 22 23 23 23 23 23 23 22 22 22 21 21 20 20 20 20 19 19 19 19 19 18 18 18 18
24 25 26 26 26 26 25 25 24 24 22 21 22 22 21 21 21 21 21 22 23 23 23 24 24 23 23 22 22 22 21 21 20 20 20 19 19 19 19 19 18 18 18 18
24 25 26 26 26 26 25 23 22 20 20 21 21 21 21 20 21 21 22 22 22 23 23 24 24 23 23 23 22 22 21 21 20 20 20 19 19 19 19 19 18 18 18 18
25 25 25 26 26 25 24 22 21 22 20 20 21 21 21 21 21 22 22 22 23 23 23 23 23 23 23 23 22 22 21 21 21 20 20 20 19 19 19 19 19 18 18 18
23 23 25 25 25 24 23 22 21 22 21 20 20 20 21 22 22 22 23 23 23 23 23 23 23 23 23 23 23 22 22 21 21 20 20 20 19 19 19 19 19 18 18 18
21 23 24 25 25 24 22 21 21 19 19 20 20 20 21 21 21 21 21 22 22 22 23 23 23 23 23 23 23 23 22 22 21 21 20 20 20 19 19 19 18 18 18 18
21 23 24 24 24 24 22 19 18 19 19 20 21 21 20 21 21 21 20 21 22 22 22 22 23 23 23 23 23 22 22 22 21 21 21 20 20 19 19 19 19 18 18 18
22 22 23 24 24 24 22 20 18 17 18 19 20 21 21 21 20 20 20 21 22 22 22 22 23 23 23 23 23 22 22 22 21 21 20 20 20 20 19 19 19 18 18 18
20 19 20 22 23 23 23 21 18 20 19 17 19 20 21 20 20 20 20 20 21 21 22 22 22 22 22 22 22 22 21 21 21 21 20 20 20 19 19 19 19 18 18 18
20 19 20 22 22 22 22 20 18 17 16 16 19 21 20 19 19 19 19 19 20 21 21 21 22 22 22 22 21 21 21 21 21 20 20 20 19 19 19 19 18 18 18 18
19 18 20 21 21 21 22 21 19 18 18 17 19 20 20 19 18 18 19 19 19 20 21 21 21 21 21 21 21 21 21 21 20 20 20 19 19 19 19 18 18 18 18 17
18 19 20 20 21 21 22 22 20 20 19 19 20 19 19 18 18 18 18 19 19 19 20 20 20 20 20 20 20 20 20 20 20 19 19 19 19 18 18 18 18 18 17 17
16 18 20 21 21 21 21 21 21 21 20 19 19 19 18 17 18 18 18 18 18 18 19 19 20 20 20 20 20 20 20 20 19 19 19 18 18 18 18 18 18 18 17 17
15 17 18 19 20 21 20 20 20 19 18 19 19 18 17 17 17 17 17 18 18 18 18 19 19 19 20 20 20 20 19 19 19 19 18 18 18 18 18 17 17 17 17 17
15 15 14 16 20 20 19 19 19 18 17 17 17 17 17 17 17 17 18 18 18 18 18 19 19 19 19 19 19 19 19 19 19 19 18 18 18 18 17 17 17 17 17 17
14 15 14 15 17 18 19 18 18 18 17 17 16 16 16 17 17 17 18 18 18 19 19 19 19 19 19 19 19 19 19 18 18 18 18 18 18 17 17 17 17 17 17 17
13 13 14 15 17 18 18 18 18 17 17 17 16 16 16 16 16 16 17 17 18 18 18 19 19 19 19 19 19 19 19 18 18 18 18 18 17 17 17 17 17 17 16 16
15 14 14 15 16 16 16 16 18 18 17 16 16 16 16 15 16 17 17 17 17 17 18 18 18 18 18 18 18 18 18 18 18 17 17 17 17 17 17 17 16 16 16 16
14 14 13 13 15 16 16 16 16 15 15 16 16 16 16 16 16 16 16 17 17 17 17 17 17 17 17 17 17 17 17 17 17 17 17 17 16 16 16 16 16 16 16 15
12 12 12 13 14 14 14 15 15 16 15 15 16 16 16 16 16 16 16 16 16 17 17 17 17 17 16 16 16 16 17 16 16 16 16 16 16 15 15 15 15 15 15 15
12 11 11 12 13 13 14 15 16 16 16 16 16 16 16 16 15 15 16 16 16 16 16 16 16 16 16 16 16 16 16 16 16 15 15 15 15 15 15 15 15 14 14 14
12 12 11 12 12 13 15 15 15 15 15 15 15 15 15 15 15 15 15 15 15 15 15 15 15 15 15 15 15 15 15 15 15 15 15 15 15 15 14 14 14 14 14 14
11 11 12 12 13 12 14 15 15 15 15 15 15 15 15 15 15 14 15 15 15 15 15 15 15 15 15 14 14 14 14 14 14 14 14 14 14 14 14 14 13 13 13 13
Wind_Speed
4 5 3 7 8 6 6 5 4 4 3 4 4 4 6 10 10 10 10 10 10 11 8 7 7 8 8 7 8 8 7 6 6 3 3 3 2 2 1 3 4 5 5 6
5 2 7 5 5 5 5 4 3 2 1 4 2 2 2 8 11 11 12 12 12 9 7 8 8 8 9 9 9 8 8 7 7 5 3 3 2 2 1 1 2 4 4 5
7 6 4 5 4 3 3 5 5 3 2 4 4 3 2 3 5 6 8 8 9 12 11 10 10 10 10 10 10 9 8 8 7 6 4 3 2 2 1 0 1 2 3 4
5 5 4 4 4 6 4 6 7 6 5 0 2 3 6 4 4 7 9 9 10 10 10 10 10 11 12 11 10 9 9 8 7 7 6 6 4 3 3 2 2 1 2 3
6 4 5 5 6 8 5 2 5 5 5 2 1 3 7 1 6 10 11 11 11 10 11 12 12 12 11 10 10 9 8 7 7 7 8 6 5 4 2 2 2 2 1 2
5 3 5 6 3 6 6 8 8 6 5 1 3 4 7 5 9 7 8 10 9 8 9 10 10 9 9 9 9 9 9 7 7 7 7 7 7 5 4 3 3 2 1 2
3 3 3 3 4 3 6 7 4 4 3 5 2 3 9 8 7 7 8 8 9 8 8 9 10 10 10 10 11 10 10 8 7 8 7 7 7 6 6 5 5 3 2 2
4 5 5 5 7 7 6 9 9 6 6 4 1 5 8 5 4 3 4 5 6 7 8 9 10 11 11 11 10 10 10 8 8 8 8 7 6 5 4 5 4 4 3 3
8 7 5 4 4 10 7 5 7 8 4 1 4 6 8 3 2 1 2 3 5 7 8 9 9 9 9 10 11 11 11 9 8 8 7 6 6 5 5 4 4 3 3 3
9 5 4 2 5 4 6 9 7 7 7 4 4 5 6 6 5 3 4 4 5 5 6 7 8 9 8 8 8 8 8 8 7 7 6 6 5 5 5 4 4 4 4 3
6 6 3 2 4 5 5 5 6 6 6 7 4 7 6 9 7 7 6 5 5 6 6 6 6 6 5 5 6 6 6 5 5 6 5 5 5 5 4 4 5 4 3 4
5 6 2 5 3 2 4 7 8 7 5 5 6 7 5 5 4 5 4 3 3 4 5 4 4 5 5 5 6 6 6 5 5 6 6 5 4 4 4 5 5 4 4 4
6 7 3 5 5 3 3 3 4 7 6 6 6 7 3 2 2 2 3 3 3 3 4 4 4 5 5 4 5 5 6 6 6 5 5 5 5 5 4 4 4 4 5 5
5 5 7 9 7 4 2 2 5 6 5 6 8 6 3 2 2 2 3 4 4 4 4 4 4 4 4 4 4 4 4 4 5 5 5 6 6 6 5 4 4 4 4 5
5 4 3 3 3 3 3 2 5 5 8 9 8 8 6 5 4 4 4 5 5 4 4 4 4 3 4 3 3 3 3 3 4 5 5 5 5 4 4 4 4 5 5 5
4 4 3 2 1 2 1 1 3 3 3 4 4 4 3 1 2 3 4 5 5 4 3 4 3 3 3 3 3 3 2 2 3 4 4 4 4 3 3 4 4 4 4 4
2 4 3 1 2 3 1 3 2 1 0 4 5 6 3 3 3 4 3 4 4 4 3 3 3 3 3 3 3 3 3 3 3 3 3 3 3 3 4 4 4 3 4 4
5 4 3 3 3 3 4 2 2 3 2 1 2 3 3 3 2 2 2 4 3 2 2 3 3 2 2 2 2 2 3 3 2 2 3 3 3 4 4 4 5 4 4 4
4 6 4 4 3 1 2 1 1 2 2 2 1 2 3 4 4 3 1 2 3 3 3 3 3 2 2 2 2 2 2 1 1 2 2 3 3 4 5 5 6 4 4 4
6 5 6 4 4 5 4 4 3 3 1 3 2 3 3 3 2 2 1 1 1 1 1 2 2 2 2 2 3 3 2 1 3 3 3 3 3 4 4 5 4 3 4 4
4 5 4 4 3 4 4 7 2 4 4 1 1 2 3 2 3 2 1 1 1 1 1 2 2 2 1 1 2 2 2 4 4 3 2 3 3 4 4 4 3 3 4 4
2 3 3 4 3 4 4 3 2 2 1 1 1 2 3 2 2 2 2 1 1 1 2 2 2 1 1 1 1 2 4 4 3 2 2 3 3 3 3 3 3 3 3 3
2 3 4 4 4 3 2 0 0 2 2 1 2 1 2 2 1 1 1 1 1 1 1 1 2 1 2 0 2 3 4 2 2 2 3 3 2 2 2 3 3 3 3 3
1 1 3 2 1 2 2 2 3 2 2 1 2 1 2 2 1 1 1 1 1 1 1 1 2 2 2 2 2 3 3 2 2 3 3 2 2 2 2 2 3 3 4 4
2 2 3 1 1 2 3 2 2 3 3 3 2 1 2 2 0 0 0 1 1 1 1 1 0 1 3 3 2 3 2 1 2 2 2 2 3 3 2 3 3 3 4 5
3 4 4 5 6 3 3 2 1 2 2 2 2 2 1 1 1 0 1 1 1 1 1 1 1 2 3 3 3 3 2 1 1 2 2 2 2 2 2 2 2 0 1 2
Wind_Direction
60 88 170 204 191 181 169 176 223 234 204 163 196 226 200 185 190 194 196 197 203 213 211 192 185 178 172 172 176 180 178 173 158 152 159 167 197 203 208 220 218 207 203 197
52 223 216 185 156 148 161 172 231 300 120 147 160 269 219 191 202 201 201 203 204 203 193 192 185 179 181 183 185 187 188 180 178 175 165 163 154 172 193 217 218 219 207 197
186 221 177 151 149 157 188 183 194 190 61 66 92 333 264 226 208 210 211 205 203 204 197 195 190 190 187 191 190 193 195 192 187 172 140 118 96 74 90 180 218 224 212 208
215 228 166 164 186 162 229 211 175 156 124 248 135 242 273 232 227 220 216 209 210 210 197 192 191 193 195 197 190 187 190 192 186 171 167 168 175 187 202 192 203 221 207 205
227 199 173 200 210 171 199 137 131 135 129 95 39 163 279 215 238 236 224 217 215 210 197 193 194 195 195 191 186 184 184 188 184 177 177 175 182 187 175 171 201 226 227 214
229 228 194 201 191 159 127 75 60 55 78 145 229 175 268 232 225 234 223 215 210 203 194 192 191 183 184 183 182 177 178 188 183 179 178 182 187 183 178 194 214 225 227 232
288 285 238 163 116 78 101 98 52 16 18 245 233 190 248 251 234 225 219 209 201 192 188 187 185 185 185 184 185 181 180 188 184 182 186 191 193 188 195 204 211 214 220 226
181 266 236 189 175 176 175 146 158 183 207 257 272 227 255 265 259 243 217 193 183 183 186 189 190 190 188 185 181 177 179 183 182 187 193 192 192 193 202 204 202 207 217 227
173 234 273 230 184 147 141 165 157 134 144 165 263 277 300 290 277 182 169 166 177 183 184 184 183 187 185 181 179 181 178 177 181 186 186 186 188 190 198 203 202 210 219 229
157 204 268 287 86 51 142 143 110 126 149 206 263 259 245 249 231 202 189 194 191 179 176 183 186 184 177 177 172 170 175 179 177 178 185 189 186 190 192 191 204 210 215 216
145 163 285 45 154 177 120 111 114 119 150 158 215 260 228 219 211 197 205 202 187 175 177 183 185 177 160 148 149 160 168 165 170 173 175 178 183 184 183 198 211 214 214 213
145 133 210 257 258 198 164 165 150 154 193 173 173 255 286 224 203 179 186 181 165 161 165 161 153 140 136 143 149 160 163 176 182 177 171 177 177 177 188 204 214 211 217 220
135 119 98 348 348 10 96 129 134 122 121 152 171 251 333 79 121 146 151 147 135 134 134 130 133 138 141 149 153 163 169 181 181 173 171 175 180 183 200 212 217 209 215 220
117 114 162 192 211 199 173 152 149 130 148 183 209 226 284 267 166 156 153 145 130 126 133 133 137 145 142 147 151 160 165 172 175 173 178 189 196 199 205 208 211 217 218 218
98 122 158 189 197 165 168 193 181 184 181 181 211 205 232 227 199 175 157 138 123 121 122 125 130 126 122 124 137 153 162 163 167 169 184 200 201 200 204 212 214 217 217 221
61 114 103 59 46 145 107 320 200 198 173 184 167 226 241 153 120 130 147 150 143 145 146 132 121 118 134 149 151 148 157 168 165 172 189 196 195 193 197 216 226 224 224 226
61 108 102 189 316 64 358 302 226 157 152 173 201 220 159 131 149 171 164 149 160 165 152 143 150 158 167 172 161 165 175 163 164 182 193 194 196 204 208 214 215 224 233 231
130 102 114 118 91 177 237 327 91 98 31 22 162 164 169 175 165 148 150 156 171 170 158 168 174 181 178 162 157 154 140 150 172 192 208 211 208 217 219 217 224 229 235 236
143 132 114 117 137 237 284 8 54 122 359 347 147 137 122 104 69 15 30 159 182 179 181 192 188 190 177 167 154 131 125 134 184 224 237 239 228 226 221 222 230 235 228 232
52 87 112 119 140 205 240 300 300 123 315 309 148 149 144 109 122 251 335 63 77 70 128 147 147 142 147 179 159 146 163 197 238 242 245 248 245 242 237 234 237 239 231 234
36 46 98 133 164 246 283 303 344 157 227 291 130 145 137 154 196 209 108 84 110 87 62 100 114 135 176 170 151 171 202 231 245 251 258 256 250 247 242 238 237 236 231 229
137 125 146 135 156 234 320 11 118 206 286 74 97 115 110 107 88 100 112 114 98 77 62 94 101 22 339 115 156 212 239 249 248 241 257 268 264 257 252 234 241 233 222 221
125 182 171 170 195 254 302 110 127 136 114 103 123 118 117 106 100 102 98 64 26 28 26 56 97 56 344 287 191 231 258 260 239 237 248 256 262 265 253 231 234 240 227 226
15 86 100 77 330 325 354 43 46 58 104 146 148 138 118 113 116 41 11 11 16 359 347 11 49 21 319 312 294 261 265 245 231 236 240 236 234 245 242 235 225 226 232 234
223 105 96 80 292 4 3 31 40 39 68 74 69 85 116 110 111 198 162 318 304 354 351 9 74 275 285 297 312 306 287 221 227 238 237 239 234 226 234 238 232 228 232 228
217 179 168 209 217 189 234 266 30 58 54 48 51 24 31 117 181 230 273 278 287 309 339 340 331 309 295 300 312 310 302 246 203 232 246 246 241 228 220 228 256 276 234 251
Height
1479 1486 1493 1491 1490 1492 1496 1502 1505 1501 1495 1499 1503 1503 1502 1502 1505 1507 1508 1510 1512 1514 1517 1520 1523 1525 1528 1530 1532 1534 1535 1537 1539 1540 1542 1543 1544 1545 1546 1547 1548 1549 1550 1551
1485 1489 1483 1483 1486 1489 1495 1502 1504 1499 1495 1499 1504 1505 1501 1501 1502 1503 1505 1506 1508 1511 1515 1517 1520 1523 1525 1528 1530 1532 1534 1536 1538 1539 1541 1542 1543 1544 1545 1546 1547 1548 1549 1549
1485 1483 1479 1482 1487 1491 1495 1499 1500 1501 1498 1500 1505 1509 1504 1501 1502 1503 1503 1504 1506 1508 1511 1514 1517 1520 1523 1525 1528 1530 1533 1535 1536 1538 1540 1541 1542 1543 1544 1545 1546 1547 1547 1548
1480 1477 1478 1482 1485 1488 1497 1488 1491 1497 1507 1516 1510 1526 1508 1503 1501 1500 1500 1501 1502 1504 1507 1510 1514 1517 1519 1522 1526 1528 1531 1533 1535 1536 1538 1539 1540 1541 1542 1544 1545 1545 1546 1546
1479 1475 1477 1482 1481 1482 1487 1484 1490 1497 1508 1517 1515 1523 1514 1504 1503 1497 1495 1496 1497 1500 1503 1506 1509 1512 1516 1520 1523 1525 1528 1531 1533 1534 1536 1537 1539 1540 1541 1542 1543 1544 1544 1545
1474 1471 1472 1474 1474 1476 1481 1490 1498 1507 1516 1529 1519 1523 1519 1506 1497 1491 1490 1491 1493 1496 1499 1502 1506 1510 1513 1517 1520 1523 1525 1528 1530 1532 1534 1536 1537 1538 1539 1540 1541 1542 1543 1543
1478 1473 1470 1470 1477 1479 1484 1503 1524 1528 1537 1533 1517 1520 1514 1492 1487 1486 1486 1487 1489 1492 1495 1499 1502 1505 1509 1512 1516 1519 1522 1525 1527 1530 1532 1533 1535 1536 1537 1538 1539 1540 1541 1541
1488 1489 1471 1468 1473 1481 1486 1496 1522 1534 1538 1532 1520 1521 1502 1486 1483 1483 1483 1484 1486 1488 1491 1494 1497 1501 1504 1508 1511 1515 1518 1521 1524 1526 1529 1531 1533 1534 1535 1536 1537 1538 1539 1539
1488 1487 1467 1465 1465 1472 1487 1494 1495 1516 1526 1531 1525 1513 1496 1484 1483 1482 1483 1483 1484 1486 1488 1491 1494 1498 1501 1504 1508 1511 1515 1518 1521 1523 1526 1528 1530 1531 1532 1534 1535 1536 1536 1537
1472 1482 1470 1465 1466 1471 1476 1487 1503 1516 1532 1535 1523 1516 1507 1490 1485 1482 1482 1482 1483 1485 1487 1489 1491 1494 1498 1501 1505 1509 1513 1515 1518 1521 1523 1525 1527 1528 1529 1530 1532 1533 1533 1534
1466 1478 1475 1470 1473 1477 1481 1489 1499 1511 1513 1528 1531 1517 1485 1482 1479 1480 1480 1480 1481 1483 1485 1487 1489 1492 1496 1499 1502 1507 1510 1513 1516 1518 1521 1522 1523 1525 1526 1527 1528 1529 1530 1531
1465 1478 1486 1477 1468 1467 1471 1479 1491 1503 1512 1517 1519 1509 1476 1476 1476 1477 1479 1480 1481 1482 1484 1486 1488 1491 1494 1497 1500 1504 1506 1510 1512 1515 1517 1519 1520 1521 1523 1524 1525 1526 1527 1527
1464 1477 1492 1489 1483 1474 1474 1478 1484 1493 1507 1517 1517 1502 1476 1475 1476 1477 1478 1479 1480 1482 1484 1485 1488 1490 1493 1496 1498 1502 1504 1507 1510 1512 1514 1516 1517 1518 1519 1521 1522 1522 1523 1523
1458 1475 1484 1492 1486 1477 1477 1477 1482 1488 1503 1509 1503 1491 1481 1478 1477 1478 1478 1479 1480 1481 1483 1485 1487 1489 1492 1494 1497 1500 1502 1504 1507 1509 1511 1512 1513 1515 1516 1517 1518 1518 1519 1519
1458 1473 1473 1473 1470 1471 1473 1474 1477 1480 1485 1492 1487 1487 1480 1478 1476 1476 1477 1478 1480 1481 1482 1484 1486 1488 1491 1494 1496 1498 1500 1502 1504 1506 1508 1509 1510 1512 1513 1514 1515 1514 1514 1515
1462 1471 1472 1474 1471 1471 1474 1473 1474 1475 1478 1480 1481 1482 1475 1476 1476 1477 1477 1478 1479 1481 1482 1484 1486 1488 1490 1493 1495 1497 1499 1501 1502 1503 1505 1506 1508 1508 1509 1510 1511 1511 1511 1511
1468 1472 1479 1483 1475 1473 1484 1478 1476 1476 1476 1477 1481 1478 1475 1476 1476 1476 1477 1478 1479 1481 1482 1484 1486 1488 1490 1491 1493 1495 1497 1499 1501 1502 1503 1503 1504 1505 1506 1506 1507 1507 1507 1507
1468 1476 1484 1487 1482 1493 1485 1474 1473 1476 1477 1475 1474 1474 1474 1475 1475 1476 1477 1478 1480 1481 1483 1484 1486 1488 1489 1491 1492 1494 1495 1497 1498 1499 1500 1501 1501 1502 1502 1502 1503 1503 1503 1504
1463 1472 1485 1492 1493 1489 1479 1474 1475 1477 1479 1476 1475 1475 1475 1476 1477 1478 1478 1479 1480 1481 1483 1484 1485 1487 1488 1489 1490 1492 1493 1494 1495 1496 1497 1497 1498 1498 1498 1498 1498 1499 1499 1499
1466 1469 1482 1491 1493 1495 1483 1473 1471 1475 1482 1476 1475 1475 1476 1476 1481 1481 1479 1480 1480 1481 1482 1483 1484 1486 1486 1487 1488 1489 1490 1491 1492 1493 1493 1494 1495 1495 1494 1494 1494 1495 1495 1495
1475 1479 1485 1489 1491 1487 1477 1472 1471 1483 1482 1476 1475 1475 1476 1476 1478 1479 1479 1480 1480 1480 1481 1481 1482 1484 1485 1486 1486 1487 1487 1488 1489 1490 1490 1490 1491 1491 1491 1490 1490 1491 1491 1491
1479 1483 1487 1489 1491 1490 1475 1473 1476 1479 1476 1475 1475 1476 1476 1476 1477 1477 1478 1478 1478 1479 1479 1480 1481 1482 1483 1484 1485 1485 1485 1486 1487 1486 1486 1486 1487 1487 1487 1487 1487 1487 1487 1487
1479 1481 1482 1484 1486 1479 1475 1475 1475 1475 1475 1476 1476 1476 1477 1477 1477 1477 1477 1477 1477 1478 1478 1479 1479 1480 1481 1481 1482 1482 1482 1483 1483 1483 1482 1482 1483 1483 1483 1483 1483 1483 1483 1483
1477 1477 1479 1481 1479 1477 1476 1475 1475 1475 1476 1476 1477 1477 1477 1477 1477 1477 1477 1477 1477 1477 1477 1478 1478 1478 1479 1479 1479 1479 1479 1479 1479 1478 1478 1478 1479 1479 1479 1479 1478 1478 1478 1479
1477 1477 1479 1481 1479 1477 1476 1476 1476 1476 1476 1477 1477 1477 1477 1477 1477 1477 1476 1477 1477 1477 1477 1477 1477 1477 1478 1478 1477 1477 1476 1475 1475 1475 1475 1474 1475 1474 1474 1474 1474 1473 1473 1474
1474 1475 1477 1478 1476 1476 1476 1476 1476 1476 1476 1476 1476 1476 1477 1477 1476 1476 1475 1475 1476 1476 1475 1476 1476 1476 1476 1475 1474 1474 1473 1472 1472 1471 1471 1470 1470 1470 1470 1470 1470 1469 1470 1470